FW0954 Weather Reports


Display with metric or nautical units.
time (UTC)temp
F
wind
direction
speed
MPH
gust
MPH
rain 1hr
in
rain 24hr
in
rain mn
in
humidity
%
barometer
mb
20260508132003 63 170 1.0 3.0 0.00 0.00 0.00 85 1014.7
20260508131503 62 174 1.0 3.0 0.00 0.00 0.00 86 1014.7
20260508131002 62 169 0.0 3.0 0.00 0.00 0.00 89 1014.9
20260508130503 62 0 0.0 0.0 0.00 0.00 0.00 91 1014.9
20260508130003 61 0 0.0 0.0 0.00 0.00 0.00 92 1015.1
20260508125503 61 0 0.0 0.0 0.00 0.00 0.00 91 1015.0
20260508125002 61 0 0.0 0.0 0.00 0.00 0.00 91 1014.9
20260508124502 60 0 0.0 0.0 0.00 0.00 0.00 91 1015.0
20260508123502 60 208 0.0 1.0 0.00 0.00 0.00 91 1014.8
20260508123003 60 208 0.0 1.0 0.00 0.00 0.00 92 1014.6
20260508122502 60 208 0.0 1.0 0.00 0.00 0.00 92 1014.6
20260508121503 59 208 0.0 1.0 0.00 0.00 0.00 92 1014.7
20260508121002 59 0 0.0 0.0 0.00 0.00 0.00 92 1014.9
20260508120503 59 0 0.0 0.0 0.00 0.00 0.00 92 1014.9
20260508120003 59 0 0.0 0.0 0.00 0.00 0.00 92 1014.7
20260508115503 59 0 0.0 0.0 0.00 0.00 0.00 92 1014.8
20260508114502 59 0 0.0 0.0 0.00 0.00 0.00 91 1014.9
20260508114003 59 0 0.0 0.0 0.00 0.00 0.00 91 1014.7
20260508113502 59 0 0.0 0.0 0.00 0.00 0.00 91 1015.0
20260508113002 59 0 0.0 0.0 0.00 0.00 0.00 91 1015.1
20260508112503 59 0 0.0 0.0 0.00 0.00 0.00 91 1015.1
20260508111503 59 0 0.0 0.0 0.00 0.00 0.00 92 1015.5
20260508111003 59 0 0.0 0.0 0.00 0.00 0.00 92 1015.7
20260508110503 59 0 0.0 0.0 0.00 0.00 0.00 92 1015.6
20260508110003 59 0 0.0 0.0 0.00 0.00 0.00 91 1015.2
20260508105504 59 0 0.0 0.0 0.00 0.00 0.00 91 1014.8
20260508105003 59 0 0.0 0.0 0.00 0.00 0.00 90 1014.6
20260508104002 60 190 0.0 2.0 0.00 0.00 0.00 90 1014.3
20260508103003 60 177 0.0 3.0 0.00 0.00 0.00 90 1013.8
20260508102503 60 178 1.0 3.0 0.00 0.00 0.00 91 1013.8
20260508101503 60 181 0.0 1.0 0.00 0.00 0.00 90 1013.8
20260508101003 60 0 0.0 0.0 0.00 0.00 0.00 90 1013.9
20260508100503 60 181 0.0 1.0 0.00 0.00 0.00 90 1014.2
20260508100003 60 179 0.0 2.0 0.00 0.00 0.00 89 1014.1
20260508095503 60 179 0.0 2.0 0.00 0.00 0.00 89 1013.9
20260508095003 60 181 0.0 1.0 0.00 0.00 0.00 89 1014.1
20260508094503 61 0 0.0 0.0 0.00 0.00 0.00 88 1014.1
20260508094004 61 181 0.0 1.0 0.00 0.00 0.00 88 1014.2
20260508093503 61 182 0.0 2.0 0.00 0.00 0.00 88 1014.1
20260508093003 61 178 0.0 2.0 0.00 0.00 0.00 89 1014.1
20260508092503 61 168 0.0 1.0 0.00 0.00 0.00 89 1014.0
20260508092003 61 171 0.0 2.0 0.00 0.00 0.00 89 1014.1
20260508091003 61 173 0.0 4.0 0.00 0.00 0.00 90 1014.2
20260508090003 61 145 0.0 2.0 0.00 0.00 0.00 90 1014.0
20260508085503 61 0 0.0 0.0 0.00 0.00 0.00 90 1014.0
20260508085003 60 0 0.0 0.0 0.00 0.00 0.00 89 1014.4
20260508084503 60 0 0.0 0.0 0.00 0.00 0.00 89 1014.6
20260508084003 60 0 0.0 0.0 0.00 0.00 0.00 89 1014.9
20260508083503 60 0 0.0 0.0 0.00 0.00 0.00 89 1015.0
20260508083003 60 0 0.0 0.0 0.00 0.00 0.00 89 1015.1
20260508082503 60 0 0.0 0.0 0.00 0.00 0.00 89 1015.3
20260508082003 61 0 0.0 0.0 0.00 0.00 0.00 89 1015.3
20260508081003 61 0 0.0 0.0 0.00 0.00 0.00 89 1015.4
20260508080502 61 0 0.0 0.0 0.00 0.00 0.00 89 1015.4
20260508080004 60 0 0.0 0.0 0.00 0.00 0.00 89 1015.6
20260508075503 60 0 0.0 0.0 0.00 0.00 0.00 90 1015.3
20260508075003 60 0 0.0 0.0 0.00 0.00 0.00 90 1015.3
20260508074503 60 0 0.0 0.0 0.00 0.00 0.00 89 1015.1
20260508074004 60 0 0.0 0.0 0.00 0.00 0.00 89 1015.1
20260508073503 60 0 0.0 0.0 0.00 0.00 0.00 89 1014.9
20260508073003 60 0 0.0 0.0 0.00 0.00 0.00 89 1014.9
20260508072503 60 0 0.0 0.0 0.00 0.00 0.00 89 1015.0
20260508072003 60 0 0.0 0.0 0.00 0.00 0.00 89 1014.9
20260508071503 60 0 0.0 0.0 0.00 0.00 0.00 89 1015.0
20260508071003 60 0 0.0 0.0 0.00 0.00 0.00 89 1015.1
20260508070503 60 0 0.0 0.0 0.00 0.00 0.00 89 1015.2
20260508065503 59 0 0.0 0.0 0.00 0.00 0.00 89 1015.3
20260508065003 59 0 0.0 0.0 0.00 0.00 0.00 88 1015.4
20260508064003 59 0 0.0 0.0 0.00 0.00 0.00 88 1015.7
20260508063003 60 0 0.0 0.0 0.00 0.00 0.00 88 1015.8
20260508062503 60 0 0.0 0.0 0.00 0.00 0.00 88 1015.6
20260508062003 60 0 0.0 0.0 0.00 0.00 0.00 88 1015.7
20260508061503 59 0 0.0 0.0 0.00 0.00 0.00 88 1015.8
20260508061004 59 0 0.0 0.0 0.00 0.00 0.00 87 1015.7
20260508060503 59 0 0.0 0.0 0.00 0.00 0.00 87 1015.8
20260508060003 60 0 0.0 0.0 0.00 0.00 0.00 87 1015.8
20260508055504 60 0 0.0 0.0 0.00 0.00 0.00 87 1015.7
20260508054004 60 0 0.0 0.0 0.00 0.00 0.00 87 1015.7
20260508053004 60 0 0.0 0.0 0.00 0.00 0.00 87 1015.8
20260508052503 60 0 0.0 0.0 0.00 0.00 0.00 87 1015.8
20260508052003 60 0 0.0 0.0 0.00 0.00 0.00 86 1015.8
20260508051504 60 0 0.0 0.0 0.00 0.00 0.00 86 1015.7
20260508051003 60 0 0.0 0.0 0.00 0.00 0.00 86 1015.7
20260508050004 60 0 0.0 0.0 0.00 0.00 0.00 85 1015.8
20260508045503 60 0 0.0 0.0 0.00 0.00 0.00 85 1015.8
20260508045004 60 0 0.0 0.0 0.00 0.00 0.00 85 1016.0
20260508044501 60 0 0.0 0.0 0.00 0.00 0.00 85 1015.9
20260508044002 60 0 0.0 0.0 0.00 0.00 0.00 86 1015.9
20260508043501 60 0 0.0 0.0 0.00 0.00 0.00 84 1015.7
20260508042501 60 0 0.0 0.0 0.00 0.00 0.00 84 1015.7
20260508042001 60 0 0.0 0.0 0.00 0.00 0.00 83 1015.7
20260508041501 60 0 0.0 0.0 0.00 0.00 0.00 84 1015.7
20260508041001 60 0 0.0 0.0 0.00 0.00 0.00 84 1015.7
20260508040001 60 0 0.0 0.0 0.00 0.00 0.00 83 1015.5
20260508035002 61 0 0.0 0.0 0.00 0.00 0.00 82 1015.4
20260508033501 61 0 0.0 0.0 0.00 0.00 0.00 82 1015.4
20260508033002 62 0 0.0 0.0 0.00 0.00 0.00 83 1015.3
20260508032502 61 0 0.0 0.0 0.00 0.00 0.00 82 1015.3
20260508032001 62 0 0.0 0.0 0.00 0.00 0.00 82 1015.4
20260508031502 62 0 0.0 0.0 0.00 0.00 0.00 82 1015.4
20260508031001 62 0 0.0 0.0 0.00 0.00 0.00 81 1015.5
20260508030502 62 0 0.0 0.0 0.00 0.00 0.00 81 1015.4
20260508030001 62 0 0.0 0.0 0.00 0.00 0.00 80 1015.4
20260508025502 62 0 0.0 0.0 0.00 0.00 0.00 80 1015.4
20260508025001 62 0 0.0 0.0 0.00 0.00 0.00 80 1015.3
20260508024502 62 0 0.0 0.0 0.00 0.00 0.00 80 1015.3
20260508024001 62 0 0.0 0.0 0.00 0.00 0.00 79 1015.4
20260508022502 62 0 0.0 0.0 0.00 0.00 0.00 78 1015.2
20260508022003 62 0 0.0 0.0 0.00 0.00 0.00 77 1015.2
20260508021501 63 0 0.0 0.0 0.00 0.00 0.00 77 1015.1
20260508021002 63 0 0.0 0.0 0.00 0.00 0.00 77 1015.0
20260508020501 63 0 0.0 0.0 0.00 0.00 0.00 77 1014.8
20260508020002 64 0 0.0 0.0 0.00 0.00 0.00 77 1014.9
20260508015501 64 0 0.0 0.0 0.00 0.00 0.00 76 1014.9
20260508015002 64 0 0.0 0.0 0.00 0.00 0.00 76 1014.9
20260508014501 64 0 0.0 0.0 0.00 0.00 0.00 75 1015.0
20260508014001 64 0 0.0 0.0 0.00 0.00 0.00 75 1015.1
20260508013502 64 0 0.0 0.0 0.00 0.00 0.00 75 1015.1
20260508013001 65 0 0.0 0.0 0.00 0.00 0.00 75 1014.9
20260508012502 65 0 0.0 0.0 0.00 0.00 0.00 74 1015.1
20260508012001 65 0 0.0 0.0 0.00 0.00 0.00 74 1015.0
20260508011502 66 0 0.0 0.0 0.00 0.00 0.00 74 1014.9
20260508010502 66 0 0.0 0.0 0.00 0.00 0.00 73 1015.0
20260508010002 66 0 0.0 0.0 0.00 0.00 0.00 74 1014.9
20260508005502 66 0 0.0 0.0 0.00 0.00 0.00 74 1014.9
20260508005001 67 171 0.0 1.0 0.00 0.00 0.00 73 1014.8
20260508004502 67 172 0.0 1.0 0.00 0.00 0.00 73 1014.9
20260508004001 67 168 0.0 1.0 0.00 0.00 0.00 73 1015.0
20260508003002 68 163 0.0 1.0 0.00 0.00 0.00 72 1015.0
20260508002502 68 155 0.0 1.0 0.00 0.00 0.00 72 1015.1
20260508002001 68 155 0.0 1.0 0.00 0.00 0.00 71 1015.1
20260508001502 68 155 0.0 1.0 0.00 0.00 0.00 71 1015.0
20260508001001 69 176 0.0 3.0 0.00 0.00 0.00 70 1015.0
20260508000502 69 189 1.0 4.0 0.00 0.00 0.00 69 1015.1
20260508000002 69 189 1.0 4.0 0.00 0.00 0.00 69 1015.1
20260507235501 69 181 0.0 4.0 0.00 0.00 0.00 68 1015.0
20260507235001 69 183 1.0 5.0 0.00 0.00 0.00 69 1015.0
20260507234502 69 187 2.0 5.0 0.00 0.00 0.00 68 1015.0
20260507234001 69 184 2.0 5.0 0.00 0.00 0.00 67 1015.0
20260507233502 69 174 1.0 5.0 0.00 0.00 0.00 68 1015.1
20260507232002 69 171 2.0 5.0 0.00 0.00 0.00 67 1015.2
20260507231502 70 182 2.0 5.0 0.00 0.00 0.00 66 1015.3
20260507231002 70 190 1.0 5.0 0.00 0.00 0.00 66 1015.2
20260507230502 70 188 1.0 5.0 0.00 0.00 0.00 66 1015.3
20260507230002 70 169 1.0 6.0 0.00 0.00 0.00 67 1015.2
20260507225502 70 164 1.0 6.0 0.00 0.00 0.00 66 1015.3
20260507225002 70 187 1.0 6.0 0.00 0.00 0.00 66 1015.3
20260507224002 70 171 2.0 5.0 0.00 0.00 0.00 66 1015.3
20260507223502 71 161 1.0 5.0 0.00 0.00 0.00 65 1015.4
20260507223001 71 174 2.0 6.0 0.00 0.00 0.00 65 1015.3
20260507222502 71 181 1.0 6.0 0.00 0.00 0.00 65 1015.4
20260507222001 72 175 1.0 5.0 0.00 0.00 0.00 65 1015.2
20260507221502 72 178 2.0 6.0 0.00 0.00 0.00 64 1015.3
20260507221002 72 175 2.0 6.0 0.00 0.00 0.00 63 1015.4
20260507220502 72 174 1.0 5.0 0.00 0.00 0.00 63 1015.4
20260507220002 73 177 1.0 4.0 0.00 0.00 0.00 63 1015.4
20260507215502 73 175 1.0 5.0 0.00 0.00 0.00 62 1015.3
20260507215002 73 167 1.0 5.0 0.00 0.00 0.00 60 1015.3
20260507214502 73 167 1.0 4.0 0.00 0.00 0.00 61 1015.4
20260507214002 74 175 1.0 3.0 0.00 0.00 0.00 60 1015.6
20260507213502 74 183 0.0 3.0 0.00 0.00 0.00 58 1015.6
20260507213002 74 174 0.0 2.0 0.00 0.00 0.00 59 1015.7
20260507212002 74 170 0.0 3.0 0.00 0.00 0.00 59 1015.8
20260507211502 75 131 0.0 2.0 0.00 0.00 0.00 59 1015.9
20260507211003 75 131 0.0 1.0 0.00 0.00 0.00 60 1015.9
20260507210502 75 130 0.0 1.0 0.00 0.00 0.00 58 1015.8
20260507205502 74 138 0.0 1.0 0.00 0.00 0.00 60 1015.9
20260507205002 75 140 0.0 2.0 0.00 0.00 0.00 58 1015.9
20260507204502 75 138 0.0 2.0 0.00 0.00 0.00 57 1015.8
20260507204002 75 139 0.0 2.0 0.00 0.00 0.00 61 1015.8
20260507203502 75 139 0.0 1.0 0.00 0.00 0.00 59 1015.9
20260507202003 75 146 0.0 1.0 0.00 0.00 0.00 58 1016.3
20260507201502 75 181 0.0 1.0 0.00 0.00 0.00 58 1016.3
20260507201001 75 123 0.0 2.0 0.00 0.00 0.00 59 1016.6
20260507200002 75 89 0.0 3.0 0.00 0.00 0.00 60 1016.6
20260507195502 75 98 0.0 3.0 0.00 0.00 0.00 59 1016.6
20260507195002 75 186 0.0 2.0 0.00 0.00 0.00 55 1016.7
20260507194502 75 98 0.0 2.0 0.00 0.00 0.00 56 1016.8
20260507194002 75 90 0.0 3.0 0.00 0.00 0.00 58 1016.8
20260507193502 75 122 0.0 3.0 0.00 0.00 0.00 60 1016.9
20260507193002 74 104 1.0 3.0 0.00 0.00 0.00 60 1017.0
20260507192502 74 57 1.0 3.0 0.00 0.00 0.00 59 1017.1
20260507192002 73 45 1.0 3.0 0.00 0.00 0.00 60 1017.1
20260507191502 73 58 0.0 3.0 0.00 0.00 0.00 59 1017.1
20260507191002 72 78 0.0 3.0 0.00 0.00 0.00 58 1017.1
20260507190502 72 111 1.0 3.0 0.00 0.00 0.00 60 1017.2
20260507190003 72 106 1.0 3.0 0.00 0.00 0.00 59 1017.3
20260507185502 73 82 1.0 8.0 0.00 0.00 0.00 59 1017.3
20260507184502 73 88 0.0 4.0 0.00 0.00 0.00 57 1017.2
20260507184002 73 106 0.0 3.0 0.00 0.00 0.00 60 1017.3
20260507183503 72 99 0.0 3.0 0.00 0.00 0.00 61 1017.5
20260507183003 72 112 0.0 3.0 0.00 0.00 0.00 59 1017.5
20260507182502 72 96 1.0 3.0 0.00 0.00 0.00 63 1017.6
20260507182002 71 90 1.0 3.0 0.00 0.00 0.00 61 1017.7
20260507181502 71 100 0.0 3.0 0.00 0.00 0.00 60 1017.7
20260507180003 70 50 1.0 3.0 0.00 0.00 0.00 60 1017.9
20260507175502 70 67 1.0 3.0 0.00 0.00 0.00 60 1017.9
20260507175003 70 99 0.0 3.0 0.00 0.00 0.00 62 1017.9
20260507174502 70 126 0.0 3.0 0.00 0.00 0.00 63 1018.1
20260507174002 70 136 0.0 2.0 0.00 0.00 0.00 62 1018.3
20260507173502 70 130 0.0 2.0 0.00 0.00 0.00 62 1018.3
20260507173002 70 138 0.0 2.0 0.00 0.00 0.00 64 1018.4
20260507172502 70 169 0.0 2.0 0.00 0.00 0.00 64 1018.5
20260507172002 70 136 0.0 2.0 0.00 0.00 0.00 64 1018.7
20260507171502 69 110 0.0 2.0 0.00 0.00 0.00 64 1019.0
20260507171003 70 108 0.0 2.0 0.00 0.00 0.00 64 1019.3
20260507170003 70 115 0.0 2.0 0.00 0.00 0.00 65 1019.4
20260507165002 69 147 0.0 2.0 0.00 0.00 0.00 65 1019.5
20260507164002 68 129 0.0 4.0 0.00 0.00 0.00 67 1019.6
20260507163502 68 124 0.0 2.0 0.00 0.00 0.00 66 1019.7
20260507163003 68 124 0.0 2.0 0.00 0.00 0.00 66 1019.6
20260507162003 68 123 0.0 2.0 0.00 0.00 0.00 67 1019.8
20260507161502 68 135 0.0 2.0 0.00 0.00 0.00 68 1019.7
20260507161003 68 30 0.0 3.0 0.00 0.00 0.00 67 1019.6
20260507160502 67 105 0.0 3.0 0.00 0.00 0.00 68 1019.6
20260507160003 67 116 0.0 2.0 0.00 0.00 0.00 70 1019.6
20260507155502 67 113 0.0 2.0 0.00 0.00 0.00 69 1019.6
20260507155002 67 289 0.0 3.0 0.00 0.00 0.00 69 1019.6
20260507154503 67 124 0.0 3.0 0.00 0.00 0.00 68 1019.6
20260507154002 67 110 1.0 2.0 0.00 0.00 0.00 70 1019.7
20260507153003 67 119 0.0 4.0 0.00 0.00 0.00 70 1019.9
20260507152502 66 0 0.0 0.0 0.00 0.00 0.00 69 1019.9
20260507151502 66 162 0.0 1.0 0.00 0.00 0.00 71 1020.0
20260507151002 66 252 0.0 1.0 0.00 0.00 0.00 72 1020.0
20260507150503 66 93 0.0 3.0 0.00 0.00 0.00 73 1020.0
20260507150002 65 101 0.0 3.0 0.00 0.00 0.00 73 1020.0
20260507145502 65 110 0.0 3.0 0.00 0.00 0.00 74 1020.0
20260507144502 64 236 0.0 1.0 0.00 0.00 0.00 74 1020.0
20260507144003 64 236 0.0 1.0 0.00 0.00 0.00 75 1020.0
20260507143003 63 247 0.0 1.0 0.00 0.00 0.00 77 1020.1
20260507142502 62 253 0.0 2.0 0.00 0.00 0.00 79 1020.2
20260507142003 62 263 0.0 2.0 0.00 0.00 0.00 80 1020.1
20260507141502 61 267 0.0 1.0 0.00 0.00 0.00 79 1020.1
20260507141002 61 0 0.0 0.0 0.00 0.00 0.00 78 1020.2
20260507140003 61 273 0.0 1.0 0.00 0.00 0.00 80 1020.3
20260507135503 60 271 0.0 1.0 0.00 0.00 0.00 83 1020.4
20260507135002 59 270 0.0 3.0 0.00 0.00 0.00 84 1020.4
20260507134502 59 270 0.0 3.0 0.00 0.00 0.00 84 1020.6
20260507134003 58 267 0.0 2.0 0.00 0.00 0.00 86 1020.5
20260507133502 57 267 0.0 2.0 0.00 0.00 0.00 86 1020.5